Tracking 29892 objects as of 21-Nov-2024
HD Live streaming from Space Station
objects crossing your sky now

STARLINK-6193

Track STARLINK-6193 now!
10-day predictions
STARLINK-6193 is classified as:


NORAD ID: 56904
Int'l Code: 2023-083AE
Perigee: 565.3 km
Apogee: 567.2 km
Inclination: 43.0 °
Period: 95.8 minutes
Semi major axis: 6937 km
RCS: Unknown
Launch date: June 12, 2023
Source: United States (US)
Launch site: AIR FORCE EASTERN TEST RANGE (AFETR)
Your satellite tracking list
Your tracking list is empty




NASA's NSSDC Master Catalog

Two Line Element Set (TLE):
1 56904U 23083AE  24325.80361158 -.00000173  00000-0  22472-5 0  9992
2 56904  43.0025 123.9062 0001384 262.9055  97.1630 15.02532623 80539
Source of the keplerian elements: AFSPC